Time,TemperatureF,DewpointF,PressureIn,WindDirection,WindDirectionDegrees,WindSpeedMPH,WindSpeedGustMPH,Humidity,HourlyPrecipIn,Conditions,Clouds,dailyrainin,SoftwareType,DateUTC
2013-06-16 04:40:00,65.1,64.2,29.32,North,0,0.0,0.0,97,0.00,,OVC240,0.00,VWS V14.01,2013-06-16 09:40:00,
2013-06-16 05:00:00,68.4,67.5,29.35,North,0,0.0,0.0,97,0.00,,OVC240,0.00,VWS V14.01,2013-06-16 10:00:00,
2013-06-16 05:10:00,68.4,67.2,29.35,East,90,0.9,0.9,96,0.00,,OVC240,0.00,VWS V14.01,2013-06-16 10:10:00,
2013-06-16 05:20:00,68.4,66.6,29.35,East,90,1.1,1.1,94,0.00,,OVC240,0.00,VWS V14.01,2013-06-16 10:20:00,
2013-06-16 05:30:00,68.7,66.9,29.35,SE,135,1.6,1.6,94,0.00,,OVC240,0.00,VWS V14.01,2013-06-16 10:30:00,
2013-06-16 05:40:00,68.7,66.9,29.35,SE,135,2.2,2.2,94,0.00,,OVC240,0.00,VWS V14.01,2013-06-16 10:40:00,
2013-06-16 05:50:00,69.3,67.2,29.35,SE,135,1.3,1.3,93,0.00,,OVC240,0.00,VWS V14.01,2013-06-16 10:50:00,
2013-06-16 06:00:00,70.3,67.9,29.35,SE,135,0.0,1.1,92,0.00,,OVC240,0.00,VWS V14.01,2013-06-16 11:00:00,
2013-06-16 06:10:00,71.6,68.8,29.35,SE,135,0.0,0.0,91,0.00,,OVC240,0.00,VWS V14.01,2013-06-16 11:10:00,
2013-06-16 06:20:00,73.2,70.1,29.35,SE,135,0.0,0.0,90,0.00,,OVC240,0.00,VWS V14.01,2013-06-16 11:20:00,
2013-06-16 06:30:00,73.8,70.0,29.38,SE,135,0.0,0.0,88,0.00,,OVC240,0.00,VWS V14.01,2013-06-16 11:30:00,
2013-06-16 06:40:00,73.9,69.5,29.38,SE,135,0.9,0.9,86,0.00,,OVC240,0.00,VWS V14.01,2013-06-16 11:40:00,
2013-06-16 06:50:00,74.7,70.2,29.38,SE,135,1.3,1.3,86,0.00,,OVC240,0.00,VWS V14.01,2013-06-16 11:50:00,
2013-06-16 07:00:00,75.6,70.4,29.38,SE,135,1.6,1.6,84,0.00,,OVC240,0.00,VWS V14.01,2013-06-16 12:00:00,
2013-06-16 07:10:00,77.5,72.3,29.38,SE,135,1.3,1.3,84,0.00,,OVC240,0.00,VWS V14.01,2013-06-16 12:10:00,
2013-06-16 07:20:00,79.7,73.0,29.38,SE,135,1.1,1.3,80,0.00,,OVC240,0.00,VWS V14.01,2013-06-16 12:20:00,
2013-06-16 07:30:00,82.6,74.2,29.38,SE,135,0.0,0.0,76,0.00,,OVC240,0.00,VWS V14.01,2013-06-16 12:30:00,
2013-06-16 07:40:00,83.5,72.7,29.35,SE,135,0.0,0.9,70,0.00,,OVC240,0.00,VWS V14.01,2013-06-16 12:40:00,
2013-06-16 07:50:00,85.5,72.4,29.35,SW,225,2.7,3.1,65,0.00,,OVC240,0.00,VWS V14.01,2013-06-16 12:50:00,
2013-06-16 08:00:00,87.1,71.5,29.35,West,270,2.9,2.9,60,0.00,,OVC240,0.00,VWS V14.01,2013-06-16 13:00:00,
2013-06-16 08:10:00,88.3,71.2,29.35,SE,135,3.1,3.8,57,0.00,,OVC240,0.00,VWS V14.01,2013-06-16 13:10:00,
2013-06-16 08:20:00,87.6,69.5,29.35,South,180,1.3,2.5,55,0.00,,OVC240,0.00,VWS V14.01,2013-06-16 13:20:00,
2013-06-16 08:30:00,90.1,72.3,29.35,SE,135,3.6,3.6,56,0.00,,OVC240,0.00,VWS V14.01,2013-06-16 13:30:00,
2013-06-16 08:40:00,87.3,67.5,29.35,ESE,112,5.8,5.8,52,0.00,,OVC240,0.00,VWS V14.01,2013-06-16 13:40:00,
2013-06-16 08:50:00,88.3,69.1,29.35,NW,315,2.7,4.0,53,0.00,,OVC240,0.00,VWS V14.01,2013-06-16 13:50:00,
2013-06-16 09:00:00,89.4,69.5,29.35,SE,135,4.0,4.0,52,0.00,,OVC240,0.00,VWS V14.01,2013-06-16 14:00:00,
2013-06-16 09:10:00,88.3,67.4,29.35,SE,135,4.0,4.0,50,0.00,,OVC240,0.00,VWS V14.01,2013-06-16 14:10:00,
2013-06-16 09:20:00,88.9,68.4,29.35,SE,135,3.6,3.6,51,0.00,,OVC240,0.00,VWS V14.01,2013-06-16 14:20:00,
2013-06-16 09:30:00,91.6,70.3,29.32,SE,135,2.7,2.7,50,0.00,,OVC240,0.00,VWS V14.01,2013-06-16 14:30:00,
2013-06-16 09:40:00,92.5,69.9,29.32,SW,225,2.9,4.3,48,0.00,,OVC240,0.00,VWS V14.01,2013-06-16 14:40:00,
2013-06-16 09:50:00,92.8,70.3,29.32,WSW,248,3.4,4.9,48,0.00,,OVC240,0.00,VWS V14.01,2013-06-16 14:50:00,
2013-06-16 10:10:00,90.5,67.5,29.29,SE,135,3.8,3.8,47,0.00,,OVC240,0.00,VWS V14.01,2013-06-16 15:10:00,
2013-06-16 10:20:00,91.8,69.3,29.29,NE,45,1.6,1.6,48,0.00,,OVC240,0.00,VWS V14.01,2013-06-16 15:20:00,
2013-06-16 10:30:00,92.5,69.9,29.35,SW,225,3.4,3.4,48,0.00,,OVC240,0.00,VWS V14.01,2013-06-16 15:30:00,
2013-06-16 10:40:00,92.7,69.5,29.32,ESE,112,3.4,5.4,47,0.00,,OVC240,0.00,VWS V14.01,2013-06-16 15:40:00,
2013-06-16 10:50:00,93.2,70.6,29.32,West,270,1.3,2.5,48,0.00,,OVC240,0.00,VWS V14.01,2013-06-16 15:50:00,
2013-06-16 11:00:00,93.0,70.4,29.32,South,180,4.9,4.9,48,0.00,,OVC240,0.00,VWS V14.01,2013-06-16 16:00:00,
2013-06-16 11:10:00,92.8,69.7,29.32,East,90,4.0,4.0,47,0.00,,OVC240,0.00,VWS V14.01,2013-06-16 16:10:00,
2013-06-16 11:20:00,92.5,68.1,29.32,West,270,1.6,1.6,45,0.00,,OVC240,0.00,VWS V14.01,2013-06-16 16:20:00,
2013-06-16 11:30:00,92.8,68.4,29.29,SSE,158,4.0,4.0,45,0.00,,OVC240,0.00,VWS V14.01,2013-06-16 16:30:00,
2013-06-16 11:40:00,93.6,69.0,29.29,SE,135,2.2,2.7,45,0.00,,OVC240,0.00,VWS V14.01,2013-06-16 16:40:00,
2013-06-16 11:50:00,93.9,69.4,29.29,SE,135,4.7,7.2,45,0.00,,OVC240,0.00,VWS V14.01,2013-06-16 16:50:00,
2013-06-16 12:00:00,95.2,69.8,29.29,West,270,2.9,2.9,44,0.00,,OVC240,0.00,VWS V14.01,2013-06-16 17:00:00,
2013-06-16 12:10:00,93.7,67.9,29.26,SE,135,4.0,4.0,43,0.00,,OVC240,0.00,VWS V14.01,2013-06-16 17:10:00,
2013-06-16 12:20:00,91.6,65.9,29.26,SW,225,2.2,2.2,43,0.00,,OVC240,0.00,VWS V14.01,2013-06-16 17:20:00,
2013-06-16 12:30:00,96.1,69.3,29.26,SE,135,1.6,2.5,42,0.00,,OVC240,0.00,VWS V14.01,2013-06-16 17:30:00,
2013-06-16 12:40:00,90.9,64.6,29.26,SSW,202,2.0,2.9,42,0.00,,OVC240,0.00,VWS V14.01,2013-06-16 17:40:00,
2013-06-16 12:50:00,87.6,65.5,29.26,NW,315,1.1,1.1,48,0.00,,OVC240,0.00,VWS V14.01,2013-06-16 17:50:00,
2013-06-16 13:00:00,85.5,69.5,29.26,NW,315,1.1,1.1,59,0.00,,OVC240,0.00,VWS V14.01,2013-06-16 18:00:00,
2013-06-16 13:10:00,84.0,71.0,29.23,NW,315,0.9,0.9,65,0.00,,OVC240,0.00,VWS V14.01,2013-06-16 18:10:00,
2013-06-16 13:20:00,83.1,71.5,29.23,North,0,0.9,0.9,68,0.00,,OVC240,0.00,VWS V14.01,2013-06-16 18:20:00,
2013-06-16 13:30:00,83.7,72.4,29.23,NW,315,0.0,0.0,69,0.00,,OVC240,0.00,VWS V14.01,2013-06-16 18:30:00,
2013-06-16 13:40:00,89.1,76.7,29.26,NW,315,0.0,0.0,67,0.00,,OVC240,0.00,VWS V14.01,2013-06-16 18:40:00,
2013-06-16 13:50:00,92.7,76.8,29.26,West,270,1.1,1.1,60,0.00,,OVC240,0.00,VWS V14.01,2013-06-16 18:50:00,
2013-06-16 14:00:00,94.6,74.9,29.26,South,180,2.7,2.7,53,0.00,,OVC240,0.00,VWS V14.01,2013-06-16 19:00:00,
2013-06-16 14:10:00,93.2,70.6,29.26,WNW,292,3.4,3.4,48,0.00,,OVC240,0.00,VWS V14.01,2013-06-16 19:10:00,
2013-06-16 14:20:00,90.1,70.7,29.26,SW,225,1.1,1.1,53,0.00,,OVC240,0.00,VWS V14.01,2013-06-16 19:20:00,
2013-06-16 14:30:00,89.8,74.1,29.26,West,270,1.1,1.1,60,0.00,,OVC240,0.00,VWS V14.01,2013-06-16 19:30:00,
2013-06-16 14:40:00,87.4,73.8,29.26,West,270,1.6,1.6,64,0.00,,OVC240,0.00,VWS V14.01,2013-06-16 19:40:00,
2013-06-16 14:50:00,85.6,73.4,29.26,West,270,0.0,0.9,67,0.00,,OVC240,0.00,VWS V14.01,2013-06-16 19:50:00,
2013-06-16 15:00:00,83.5,72.7,29.26,West,270,0.0,0.0,70,0.00,,OVC240,0.00,VWS V14.01,2013-06-16 20:00:00,
2013-06-16 15:10:00,82.4,72.9,29.26,West,270,0.0,0.0,73,0.00,,OVC240,0.00,VWS V14.01,2013-06-16 20:10:00,
2013-06-16 15:20:00,81.1,72.5,29.26,West,270,0.0,0.0,75,0.00,,OVC240,0.00,VWS V14.01,2013-06-16 20:20:00,
2013-06-16 15:30:00,79.9,71.6,29.23,West,270,0.0,0.0,76,0.00,,OVC240,0.00,VWS V14.01,2013-06-16 20:30:00,
2013-06-16 15:40:00,78.6,71.6,29.23,West,270,0.0,1.1,79,0.00,,OVC240,0.00,VWS V14.01,2013-06-16 20:40:00,
2013-06-16 15:50:00,77.4,71.1,29.23,West,270,1.1,1.1,81,0.00,,OVC240,0.00,VWS V14.01,2013-06-16 20:50:00,
2013-06-16 16:00:00,76.6,71.1,29.26,SW,225,2.5,2.5,83,0.00,,OVC240,0.00,VWS V14.01,2013-06-16 21:00:00,
2013-06-16 16:10:00,76.1,71.3,29.26,WNW,292,5.6,5.6,85,0.00,,OVC240,0.00,VWS V14.01,2013-06-16 21:10:00,
2013-06-16 16:20:00,75.4,70.9,29.26,WNW,292,2.7,2.7,86,0.00,,OVC240,0.00,VWS V14.01,2013-06-16 21:20:00,
2013-06-16 16:30:00,74.8,71.1,29.26,West,270,2.2,2.2,88,0.00,,OVC240,0.00,VWS V14.01,2013-06-16 21:30:00,
2013-06-16 16:40:00,74.5,71.0,29.26,SW,225,0.0,2.0,89,0.00,,OVC240,0.00,VWS V14.01,2013-06-16 21:40:00,
2013-06-16 16:50:00,73.9,70.5,29.26,SW,225,0.0,0.0,89,0.00,,OVC240,0.00,VWS V14.01,2013-06-16 21:50:00,
2013-06-16 17:00:00,73.9,70.8,29.23,WNW,292,0.0,0.0,90,0.00,,OVC240,0.00,VWS V14.01,2013-06-16 22:00:00,
2013-06-16 17:10:00,73.9,71.2,29.26,SW,225,0.0,1.6,91,0.00,,OVC240,0.00,VWS V14.01,2013-06-16 22:10:00,
2013-06-16 17:20:00,73.8,71.0,29.26,WSW,248,0.0,0.0,91,0.00,,OVC240,0.00,VWS V14.01,2013-06-16 22:20:00,
2013-06-16 17:30:00,73.4,70.6,29.26,North,0,0.0,0.0,91,0.00,,OVC240,0.00,VWS V14.01,2013-06-16 22:30:00,
2013-06-16 17:40:00,73.0,70.6,29.26,NNW,338,0.0,0.0,92,0.00,,OVC240,0.00,VWS V14.01,2013-06-16 22:40:00,
2013-06-16 17:50:00,72.5,70.4,29.26,West,270,1.6,2.0,93,0.00,,OVC240,0.00,VWS V14.01,2013-06-16 22:50:00,
2013-06-16 18:10:00,72.1,70.0,29.29,South,180,0.0,0.0,93,0.00,,OVC240,0.00,VWS V14.01,2013-06-16 23:10:00,
2013-06-16 18:30:00,71.6,69.8,29.29,East,90,2.0,2.0,94,0.00,,OVC240,0.00,VWS V14.01,2013-06-16 23:30:00,
2013-06-16 18:40:00,71.4,69.9,29.32,SE,135,2.2,2.2,95,0.00,,OVC240,0.00,VWS V14.01,2013-06-16 23:40:00,
2013-06-16 18:50:00,71.2,69.7,29.32,West,270,0.0,0.0,95,0.00,,OVC240,0.00,VWS V14.01,2013-06-16 23:50:00,
2013-06-16 19:00:00,70.9,69.1,29.29,WSW,248,1.1,1.1,94,0.00,,OVC240,0.00,VWS V14.01,2013-06-17 00:00:00,
2013-06-16 19:10:00,70.7,68.9,29.32,SSW,202,1.1,4.0,94,0.00,,OVC240,0.00,VWS V14.01,2013-06-17 00:10:00,
2013-06-16 19:20:00,70.5,68.7,29.32,West,270,2.5,2.5,94,0.00,,OVC240,0.00,VWS V14.01,2013-06-17 00:20:00,
2013-06-16 19:30:00,70.3,68.5,29.29,South,180,0.0,0.0,94,0.00,,OVC240,0.00,VWS V14.01,2013-06-17 00:30:00,
2013-06-16 19:40:00,70.2,68.4,29.32,WSW,248,0.0,0.0,94,0.00,,OVC240,0.00,VWS V14.01,2013-06-17 00:40:00,
2013-06-16 19:50:00,69.8,68.3,29.32,West,270,2.0,2.0,95,0.00,,OVC240,0.00,VWS V14.01,2013-06-17 00:50:00,
2013-06-16 20:00:00,69.6,68.1,29.32,West,270,1.3,1.3,95,0.00,,OVC240,0.00,VWS V14.01,2013-06-17 01:00:00,
2013-06-16 20:20:00,69.4,67.9,29.29,West,270,0.0,0.0,95,0.00,,OVC240,0.00,VWS V14.01,2013-06-17 01:20:00,
2013-06-16 20:30:00,69.4,68.2,29.32,West,270,0.0,0.0,96,0.00,,OVC240,0.00,VWS V14.01,2013-06-17 01:30:00,
2013-06-16 20:50:00,69.3,68.1,29.29,NW,315,0.0,0.9,96,0.00,,OVC240,0.00,VWS V14.01,2013-06-17 01:50:00,
2013-06-16 21:00:00,69.3,68.1,29.29,NW,315,0.0,0.0,96,0.00,,OVC240,0.00,VWS V14.01,2013-06-17 02:00:00,
2013-06-16 21:10:00,69.4,68.2,29.29,NW,315,0.0,0.0,96,0.00,,OVC240,0.00,VWS V14.01,2013-06-17 02:10:00,
2013-06-16 21:20:00,69.4,68.2,29.29,SW,225,0.0,0.0,96,0.00,,OVC240,0.00,VWS V14.01,2013-06-17 02:20:00,
2013-06-16 21:30:00,69.4,68.2,29.29,SW,225,0.0,0.0,96,0.00,,OVC240,0.00,VWS V14.01,2013-06-17 02:30:00,
2013-06-16 21:40:00,69.3,68.1,29.26,SW,225,0.0,0.0,96,0.00,,OVC240,0.00,VWS V14.01,2013-06-17 02:40:00,
2013-06-16 21:50:00,69.3,68.1,29.26,SW,225,0.0,0.0,96,0.00,,OVC240,0.00,VWS V14.01,2013-06-17 02:50:00,
2013-06-16 22:00:00,69.3,68.1,29.26,SW,225,0.0,0.0,96,0.00,,OVC240,0.00,VWS V14.01,2013-06-17 03:00:00,
2013-06-16 22:01:00,69.1,67.9,29.26,SW,225,0.0,0.0,96,0.00,,OVC240,0.00,VWS V14.01,2013-06-17 03:01:00,
2013-06-16 22:02:00,69.1,67.9,29.26,SW,225,0.0,0.0,96,0.00,,OVC240,0.00,VWS V14.01,2013-06-17 03:02:00,
2013-06-16 22:03:00,69.1,67.9,29.26,SW,225,0.0,0.0,96,0.00,,OVC240,0.00,VWS V14.01,2013-06-17 03:03:00,
2013-06-16 22:04:00,69.1,67.9,29.26,SW,225,0.0,0.0,96,0.00,,OVC240,0.00,VWS V14.01,2013-06-17 03:04:00,
2013-06-16 22:06:00,69.1,67.9,29.26,SW,225,0.0,0.0,96,0.00,,OVC240,0.00,VWS V14.01,2013-06-17 03:06:00,
2013-06-16 22:07:00,69.1,67.9,29.29,SW,225,0.0,0.0,96,0.00,,OVC240,0.00,VWS V14.01,2013-06-17 03:07:00,
2013-06-16 22:08:00,69.1,67.9,29.29,SW,225,0.0,0.0,96,0.00,,OVC240,0.00,VWS V14.01,2013-06-17 03:08:00,
2013-06-16 22:09:00,69.1,67.9,29.29,SW,225,0.0,0.0,96,0.00,,OVC240,0.00,VWS V14.01,2013-06-17 03:09:00,
2013-06-16 22:10:00,69.1,67.9,29.29,SW,225,0.0,0.0,96,0.00,,OVC240,0.00,VWS V14.01,2013-06-17 03:10:00,
2013-06-16 22:11:00,69.1,67.9,29.29,SW,225,0.0,0.0,96,0.00,,OVC240,0.00,VWS V14.01,2013-06-17 03:11:00,
2013-06-16 22:12:00,69.1,67.9,29.29,SW,225,0.0,0.0,96,0.00,,OVC240,0.00,VWS V14.01,2013-06-17 03:12:00,
2013-06-16 22:13:00,69.1,67.9,29.29,SW,225,0.0,0.0,96,0.00,,OVC240,0.00,VWS V14.01,2013-06-17 03:13:00,
2013-06-16 22:14:00,69.1,67.9,29.29,SW,225,0.0,0.0,96,0.00,,OVC240,0.00,VWS V14.01,2013-06-17 03:14:00,
2013-06-16 22:15:00,69.1,67.9,29.29,SW,225,0.0,0.0,96,0.00,,OVC240,0.00,VWS V14.01,2013-06-17 03:15:00,
2013-06-16 22:16:00,69.1,67.9,29.29,SW,225,0.0,0.0,96,0.00,,OVC240,0.00,VWS V14.01,2013-06-17 03:16:00,
2013-06-16 22:17:00,68.9,67.7,29.29,SW,225,0.0,0.0,96,0.00,,OVC240,0.00,VWS V14.01,2013-06-17 03:17:00,
2013-06-16 22:18:00,68.9,67.7,29.29,SW,225,0.0,0.0,96,0.00,,OVC240,0.00,VWS V14.01,2013-06-17 03:18:00,
2013-06-16 22:19:00,68.9,67.7,29.29,SW,225,0.0,0.0,96,0.00,,OVC240,0.00,VWS V14.01,2013-06-17 03:19:00,
2013-06-16 22:20:00,68.9,67.7,29.29,SW,225,0.0,0.0,96,0.00,,OVC240,0.00,VWS V14.01,2013-06-17 03:20:00,
2013-06-16 22:21:00,68.9,67.7,29.29,SW,225,0.0,0.0,96,0.00,,OVC240,0.00,VWS V14.01,2013-06-17 03:21:00,
2013-06-16 22:22:00,68.9,68.0,29.29,SW,225,0.0,0.0,97,0.00,,OVC240,0.00,VWS V14.01,2013-06-17 03:22:00,
2013-06-16 22:23:00,68.9,68.0,29.29,SW,225,0.0,0.0,97,0.00,,OVC240,0.00,VWS V14.01,2013-06-17 03:23:00,
2013-06-16 22:24:00,68.9,68.0,29.29,SW,225,0.0,0.0,97,0.00,,OVC240,0.00,VWS V14.01,2013-06-17 03:24:00,
2013-06-16 22:25:00,68.9,68.0,29.29,SW,225,0.0,0.0,97,0.00,,OVC240,0.00,VWS V14.01,2013-06-17 03:25:00,
2013-06-16 22:26:00,68.9,68.0,29.29,SW,225,0.0,0.0,97,0.00,,OVC240,0.00,VWS V14.01,2013-06-17 03:26:00,
2013-06-16 22:27:00,68.9,68.0,29.29,SW,225,0.0,0.0,97,0.00,,OVC240,0.00,VWS V14.01,2013-06-17 03:27:00,
2013-06-16 22:28:00,68.9,68.0,29.29,SW,225,0.0,0.0,97,0.00,,OVC240,0.00,VWS V14.01,2013-06-17 03:28:00,
2013-06-16 22:29:00,68.9,68.0,29.29,SW,225,0.0,0.0,97,0.00,,OVC240,0.00,VWS V14.01,2013-06-17 03:29:00,
2013-06-16 22:30:00,68.9,68.0,29.29,SW,225,0.0,0.0,97,0.00,,OVC240,0.00,VWS V14.01,2013-06-17 03:30:00,
2013-06-16 22:31:00,68.9,68.0,29.29,SW,225,0.0,0.0,97,0.00,,OVC240,0.00,VWS V14.01,2013-06-17 03:31:00,
2013-06-16 22:32:00,68.9,68.0,29.29,SW,225,0.0,0.0,97,0.00,,OVC240,0.00,VWS V14.01,2013-06-17 03:32:00,
2013-06-16 22:33:00,68.9,68.0,29.29,SW,225,0.0,0.0,97,0.00,,OVC240,0.00,VWS V14.01,2013-06-17 03:33:00,
2013-06-16 22:34:00,68.9,68.0,29.29,SW,225,0.0,0.0,97,0.00,,OVC240,0.00,VWS V14.01,2013-06-17 03:34:00,
2013-06-16 22:35:00,68.9,68.0,29.29,SW,225,0.0,0.0,97,0.00,,OVC240,0.00,VWS V14.01,2013-06-17 03:35:00,
2013-06-16 22:36:00,68.9,68.0,29.29,SW,225,0.0,0.0,97,0.00,,OVC240,0.00,VWS V14.01,2013-06-17 03:36:00,